Location: Nied?wied?
(53.3665°N, 14.8184°E)
Time: 18:14:55
(UTC+00:00)

ISS - Pass Details

Date: 17 May 2021
Orbit: 417 x 422 km, 51.6° (Epoch: 14 June)

Event Time Altitude Azimuth Distance (km) Brightness Sun altitude
Rises 20:03:53 0° 231° (SW) 2,358 0.1 -8.1°
Reaches altitude 10° 20:06:05 10° 221° (SW) 1,498 -1.0 -8.3°
Maximum altitude 20:09:09 33° 156° (SSE) 731 -3.0 -8.6°
Drops below altitude 10° 20:12:13 10° 90° (E) 1,506 -1.3 -8.9°
Sets 20:14:26 0° 81° (E) 2,374 -0.2 -9.1°
